User: anonymous   Login
Location: Unspecified
(0.0000°N, 0.0000°E)
Time: 05:52:35
(UTC+00:00)
Language:

TECSAR - Orbit

View from above orbital plane
View from above orbital plane
View from above satellite
View from above satellite

Ground track
Ground track

The orbit data is extracted from the following two-line orbital elements,

1 32476U 08002A   16028.79808643 0.00000000  00000-0  00000-0 0    07
2 32476  41.0216 201.1948 0000999  13.4469 346.5525 15.15822039    03
Epoch (UTC): 28 January 2016 19:09:14
Eccentricity: 0.0000999
inclination: 41.0216°
perigee height: 518 km
apogee height: 519 km
right ascension of ascending node: 201.1948°
argument of perigee: 13.4469°
revolutions per day: 15.15822039
mean anomaly at epoch: 346.5525°
orbit number at epoch: 0

The dashed part of the orbit path shows where the satellite is in the earth's shadow,  

DLR